Simultaneous Nadir Overpasses (SNOs) Predictions

Prediction of SNOs between GOES-15 and NPP Satellite Orbit:

Table of predicted SNOs for the next 14.0 days since TLE Epoch: 11/4/2012
Index Date Time (GOES-15) GOES-15 Lat,Lon NPP Lat,Lon Distance(km) Time Diff (sec)
1 11/04/2012 22:15:44 -0.09,-134.89 0.33,-132.90 226.53 80
2 11/06/2012 10:34:53 0.06,-134.88 0.79,-138.18 376.52 80
3 11/07/2012 10:18:49 0.07,-134.83 -0.21,-133.65 135.62 80
4 11/08/2012 22:38:05 -0.04,-134.72 -0.99,-138.95 481.94 80
5 11/09/2012 22:22:00 -0.05,-134.68 0.02,-134.42 30.15 80
6 11/12/2012 10:22:24 0.04,-134.61 0.14,-135.16 62.19 80
7 11/13/2012 10:06:19 0.06,-134.56 -0.82,-130.62 449.01 80
8 11/14/2012 22:25:35 -0.03,-134.43 -0.36,-135.92 170.39 80
9 11/15/2012 22:09:30
